Home   Weather   Libreville   Past weeks
Flag for Gabon

Past Weather in Libreville, Gabon — Yesterday and Last 2 Weeks

Now
79 °F

Passing clouds.


Feels Like: 81 °F
Forecast: 82 / 76 °F
Wind: 7 mph from South

Location: Libreville Airport

Current Time: Jun 26, 2019 at 1:18:54 am

Latest Report: Jun 26, 2019 at 1:00 am


Visibility: N/A

Pressure: 29.92 "Hg

Humidity: 74%

Dew Point: 70 °F

Location of LibrevilleLocation

Past Weather in Libreville — Graph

°F

Libreville Temperature Yesterday

Maximum temperature yesterday: 84 °F (at 1:30 pm)
Minimum temperature yesterday: 75 °F (at 5:30 am)
Average temperature yesterday: 80 °F

High & Low Weather Summary for the Past Weeks

 TemperatureHumidityPressure
High84 °F (Jun 11, 1:30 pm)100% (Jun 21, 4:30 am)30.01 "Hg (Jun 21, 4:30 am)
Low75 °F (Jun 12, 7:00 am)66% (Jun 15, 1:00 pm)29.86 "Hg (Jun 11, 3:00 am)
Average80 °F82%29.94 "Hg
* Reported Jun 11 12:00 am — Jun 26 12:00 am, Libreville. Weather by CustomWeather, © 2019

Note: Actual official high and low records may vary slightly from our data, if they occured in-between our weather recording intervals... More about our weather records

Advertising

Libreville Weather History for the Previous 24 Hours

Scroll right to see more
 ConditionsComfort  
Time TempWeatherWind HumidityBarometerVisibility
12:00 am
Wed, Jun 26
79 °FPassing clouds.9 mph79%29.92 "HgN/A
11:30 pm
Tue, Jun 25
79 °FPassing clouds.12 mph79%29.95 "HgN/A
11:00 pm81 °FPassing clouds.9 mph74%29.95 "HgN/A
10:30 pm81 °FPassing clouds.9 mph74%29.95 "HgN/A
10:00 pm81 °FPassing clouds.9 mph74%29.95 "HgN/A
9:30 pm81 °FPassing clouds.8 mph74%29.95 "HgN/A
9:00 pm81 °FPassing clouds.8 mph74%29.95 "HgN/A
8:30 pm81 °FPassing clouds.8 mph74%29.95 "HgN/A
8:00 pm81 °FPassing clouds.8 mph74%29.92 "HgN/A
7:30 pm81 °FPassing clouds.7 mph74%29.92 "HgN/A
7:00 pm81 °FPassing clouds.7 mph74%29.92 "HgN/A
6:30 pm81 °FPassing clouds.7 mph74%29.92 "HgN/A
6:00 pm81 °FScattered clouds.7 mph74%29.89 "HgN/A
5:30 pm81 °FScattered clouds.8 mph74%29.89 "HgN/A
5:00 pm81 °FScattered clouds.8 mph70%29.89 "HgN/A
4:30 pm81 °FScattered clouds.7 mph70%29.89 "HgN/A
4:00 pm81 °FScattered clouds.8 mph74%29.89 "HgN/A
3:30 pm81 °FScattered clouds.9 mph74%29.89 "HgN/A
3:00 pm82 °FScattered clouds.9 mph66%29.89 "HgN/A
2:30 pm84 °FScattered clouds.10 mph66%29.89 "HgN/A
2:00 pm84 °FScattered clouds.9 mph66%29.89 "HgN/A
1:30 pm84 °FPassing clouds.9 mph66%29.92 "HgN/A
1:00 pm82 °FScattered clouds.7 mph70%29.92 "HgN/A
12:30 pm82 °FScattered clouds.7 mph70%29.92 "HgN/A
12:00 pm82 °FScattered clouds.8 mph70%29.92 "HgN/A
11:30 am81 °FScattered clouds.8 mph74%29.95 "HgN/A
11:00 am81 °FPassing clouds.12 mph74%29.95 "HgN/A
10:30 am81 °FPassing clouds.13 mph74%29.95 "HgN/A
10:00 am79 °FPassing clouds.12 mph74%29.98 "HgN/A
9:30 am79 °FPassing clouds.13 mph79%29.98 "HgN/A
9:00 am79 °FPassing clouds.12 mph79%29.98 "HgN/A
8:30 am79 °FScattered clouds.12 mph79%29.98 "HgN/A
8:00 am77 °FScattered clouds.12 mph83%29.95 "HgN/A
7:30 am77 °FScattered clouds.8 mph83%29.95 "HgN/A
7:00 am75 °FScattered clouds.8 mph89%29.95 "HgN/A
6:30 am77 °FScattered clouds.9 mph83%29.92 "HgN/A
6:00 am75 °FPassing clouds.9 mph89%29.92 "HgN/A
5:30 am75 °FPassing clouds.9 mph89%29.92 "HgN/A
5:00 am77 °FPassing clouds.9 mph89%29.92 "HgN/A
4:30 am77 °FPassing clouds.7 mph89%29.92 "HgN/A
4:00 am77 °FPassing clouds.10 mph89%29.89 "HgN/A
3:30 am77 °FPassing clouds.8 mph83%29.89 "HgN/A
3:00 am79 °FPassing clouds.8 mph79%29.89 "HgN/A
2:00 am79 °FPassing clouds.8 mph79%29.89 "HgN/A
1:30 am79 °FPassing clouds.8 mph84%29.92 "HgN/A
1:00 am79 °FPassing clouds.8 mph84%29.92 "HgN/A
Weather by CustomWeather, © 2019

See weather overview